| time (UTC) | temp F | wind direction | speed knots | gust knots | rain 1hr in | rain 24hr in | rain mn in | humidity % | barometer mb |
| 20260502203011 | 70 | 277 | 0.9 | 7.8 | 0.00 | 0.00 | 0.00 | 29 | 1022.7 |
| 20260502202509 | 69 | 171 | 1.7 | 7.8 | 0.00 | 0.00 | 0.00 | 29 | 1022.7 |
| 20260502202009 | 70 | 182 | 5.2 | 7.8 | 0.00 | 0.00 | 0.00 | 29 | 1022.7 |
| 20260502201509 | 70 | 60 | 2.6 | 12.2 | 0.00 | 0.00 | 0.00 | 29 | 1022.7 |
| 20260502201009 | 70 | 58 | 7.0 | 12.2 | 0.00 | 0.00 | 0.00 | 28 | 1022.9 |
| 20260502200507 | 70 | 204 | 3.5 | 9.6 | 0.00 | 0.00 | 0.00 | 29 | 1022.9 |
| 20260502200007 | 70 | 135 | 3.5 | 8.7 | 0.00 | 0.00 | 0.00 | 29 | 1023.0 |
| 20260502195004 | 70 | 102 | 2.6 | 7.0 | 0.00 | 0.00 | 0.00 | 30 | 1023.2 |
| 20260502194504 | 69 | 261 | 0.9 | 7.0 | 0.00 | 0.00 | 0.00 | 28 | 1023.3 |
| 20260502194005 | 70 | 62 | 1.7 | 7.0 | 0.00 | 0.00 | 0.00 | 28 | 1023.3 |
| 20260502193503 | 70 | 80 | 2.6 | 7.0 | 0.00 | 0.00 | 0.00 | 28 | 1023.3 |
| 20260502193003 | 70 | 158 | 3.5 | 7.0 | 0.00 | 0.00 | 0.00 | 29 | 1023.4 |
| 20260502192503 | 70 | 205 | 2.6 | 7.0 | 0.00 | 0.00 | 0.00 | 28 | 1023.5 |
| 20260502192002 | 70 | 103 | 2.6 | 9.6 | 0.00 | 0.00 | 0.00 | 28 | 1023.5 |
| 20260502191503 | 70 | 56 | 3.5 | 9.6 | 0.00 | 0.00 | 0.00 | 29 | 1023.7 |
| 20260502191002 | 70 | 134 | 2.6 | 10.4 | 0.00 | 0.00 | 0.00 | 29 | 1023.7 |
| 20260502190501 | 70 | 73 | 6.1 | 10.4 | 0.00 | 0.00 | 0.00 | 29 | 1023.7 |
| 20260502190108 | 70 | 56 | 1.7 | 7.0 | 0.00 | 0.00 | 0.00 | 28 | 1023.8 |
| 20260502185059 | 70 | 58 | 2.6 | 8.7 | 0.00 | 0.00 | 0.00 | 28 | 1024.0 |
| 20260502184601 | 71 | 89 | 5.2 | 8.7 | 0.00 | 0.00 | 0.00 | 28 | 1024.2 |
| 20260502184058 | 71 | 27 | 4.3 | 7.8 | 0.00 | 0.00 | 0.00 | 28 | 1024.1 |
| 20260502183556 | 70 | 38 | 1.7 | 7.0 | 0.00 | 0.00 | 0.00 | 29 | 1024.1 |
| 20260502183055 | 69 | 45 | 3.5 | 7.0 | 0.00 | 0.00 | 0.00 | 30 | 1024.2 |
| 20260502182554 | 68 | 41 | 1.7 | 6.1 | 0.00 | 0.00 | 0.00 | 31 | 1024.3 |
| 20260502182058 | 68 | 235 | 2.6 | 7.8 | 0.00 | 0.00 | 0.00 | 31 | 1024.3 |
| 20260502181556 | 68 | 225 | 3.5 | 7.8 | 0.00 | 0.04 | 0.00 | 31 | 1024.4 |
| 20260502181053 | 68 | 54 | 2.6 | 7.8 | 0.00 | 0.04 | 0.00 | 31 | 1024.5 |
| 20260502180554 | 67 | 122 | 2.6 | 7.8 | 0.00 | 0.04 | 0.00 | 32 | 1024.4 |
| 20260502180119 | 67 | 161 | 3.5 | 8.7 | 0.00 | 0.04 | 0.00 | 34 | 1024.4 |
| 20260502164051 | 66 | 37 | 2.6 | 7.8 | 0.00 | 0.23 | 0.00 | 34 | 1025.1 |
| 20260502163550 | 66 | 37 | 2.6 | 8.7 | 0.00 | 0.23 | 0.00 | 35 | 1025.1 |
| 20260502163049 | 65 | 66 | 2.6 | 8.7 | 0.00 | 0.23 | 0.00 | 35 | 1025.1 |
| 20260502162549 | 65 | 187 | 0.9 | 9.6 | 0.00 | 0.23 | 0.00 | 36 | 1025.1 |
| 20260502162049 | 65 | 58 | 5.2 | 9.6 | 0.00 | 0.23 | 0.00 | 36 | 1025.1 |
| 20260502161548 | 65 | 71 | 3.5 | 7.8 | 0.00 | 0.62 | 0.00 | 36 | 1025.2 |
| 20260502161046 | 65 | 183 | 2.6 | 4.3 | 0.00 | 0.62 | 0.00 | 37 | 1025.2 |
| 20260502160546 | 65 | 36 | 0.0 | 5.2 | 0.00 | 0.62 | 0.00 | 38 | 1025.2 |
| 20260502152040 | 62 | 94 | 2.6 | 6.1 | 0.00 | 0.62 | 0.00 | 42 | 1025.4 |
| 20260502151537 | 62 | 195 | 1.7 | 4.3 | 0.00 | 0.62 | 0.00 | 41 | 1025.4 |
| 20260502151037 | 62 | 161 | 0.9 | 3.5 | 0.00 | 0.62 | 0.00 | 41 | 1025.4 |
| 20260502150537 | 62 | 112 | 2.6 | 3.5 | 0.00 | 0.62 | 0.00 | 40 | 1025.4 |
| 20260502130523 | 52 | 122 | 0.0 | 1.7 | 0.00 | 0.79 | 0.00 | 63 | 1024.6 |
| 20260502123513 | 51 | 117 | 0.9 | 2.6 | 0.00 | 0.79 | 0.00 | 64 | 1024.3 |
| 20260502123013 | 51 | 117 | 0.0 | 0.0 | 0.00 | 0.79 | 0.00 | 64 | 1024.2 |
| 20260502122514 | 51 | 117 | 0.0 | 0.9 | 0.00 | 0.79 | 0.00 | 64 | 1024.1 |
| 20260502122015 | 51 | 117 | 0.0 | 0.9 | 0.00 | 0.79 | 0.00 | 64 | 1024.1 |
| 20260502121512 | 51 | 117 | 0.0 | 0.0 | 0.00 | 0.79 | 0.00 | 64 | 1024.1 |
| 20260502121012 | 51 | 117 | 0.0 | 0.9 | 0.00 | 0.79 | 0.00 | 64 | 1024.0 |
| 20260502120511 | 51 | 117 | 0.0 | 1.7 | 0.00 | 0.79 | 0.00 | 64 | 1024.0 |
| 20260502115010 | 51 | 117 | 0.0 | 0.9 | 0.00 | 0.79 | 0.00 | 64 | 1023.9 |
| 20260502114507 | 51 | 117 | 0.0 | 0.9 | 0.00 | 0.79 | 0.00 | 64 | 1023.9 |
| 20260502114007 | 51 | 117 | 0.0 | 0.9 | 0.00 | 0.79 | 0.00 | 64 | 1023.9 |
| 20260502113506 | 51 | 117 | 0.0 | 1.7 | 0.00 | 0.79 | 0.00 | 64 | 1023.9 |
| 20260502113013 | 51 | 117 | 0.0 | 1.7 | 0.00 | 0.79 | 0.00 | 64 | 1023.9 |
| 20260502112506 | 51 | 117 | 0.0 | 1.7 | 0.00 | 0.79 | 0.00 | 65 | 1023.8 |
| 20260502112006 | 50 | 117 | 0.9 | 1.7 | 0.00 | 0.79 | 0.00 | 65 | 1023.8 |
| 20260502111505 | 50 | 117 | 0.0 | 2.6 | 0.00 | 0.79 | 0.00 | 64 | 1023.9 |
| 20260502111005 | 50 | 117 | 0.0 | 2.6 | 0.00 | 0.79 | 0.00 | 64 | 1023.9 |
| 20260502110504 | 51 | 117 | 0.9 | 2.6 | 0.00 | 0.79 | 0.00 | 64 | 1023.9 |
| 20260502110004 | 51 | 113 | 0.0 | 1.7 | 0.00 | 0.79 | 0.00 | 64 | 1023.9 |
| 20260502105008 | 51 | 101 | 0.9 | 1.7 | 0.00 | 0.79 | 0.00 | 64 | 1023.9 |
| 20260502104507 | 51 | 100 | 0.0 | 0.9 | 0.00 | 0.79 | 0.00 | 64 | 1023.8 |
| 20260502104006 | 51 | 100 | 0.0 | 0.9 | 0.00 | 0.79 | 0.00 | 64 | 1023.9 |
| 20260502103506 | 51 | 100 | 0.0 | 0.9 | 0.00 | 0.79 | 0.00 | 64 | 1023.7 |
| 20260502103006 | 51 | 100 | 0.0 | 1.7 | 0.00 | 0.79 | 0.00 | 64 | 1023.8 |
| 20260502102505 | 50 | 100 | 0.9 | 2.6 | 0.00 | 0.79 | 0.00 | 64 | 1023.6 |
| 20260502102004 | 51 | 103 | 0.0 | 1.7 | 0.00 | 0.79 | 0.00 | 64 | 1023.6 |
| 20260502101504 | 51 | 103 | 0.0 | 0.9 | 0.00 | 0.79 | 0.79 | 64 | 1023.6 |
| 20260502101005 | 51 | 103 | 0.0 | 0.0 | 0.00 | 0.79 | 0.79 | 64 | 1023.6 |
| 20260502100503 | 50 | 103 | 0.0 | 0.0 | 0.00 | 0.79 | 0.79 | 64 | 1023.7 |
| 20260502091058 | 49 | 104 | 0.0 | 0.9 | 0.00 | 0.79 | 0.79 | 65 | 1023.0 |
| 20260502090555 | 49 | 104 | 0.0 | 0.9 | 0.00 | 0.79 | 0.79 | 65 | 1022.9 |
| 20260502071043 | 51 | 109 | 0.0 | 0.0 | 0.00 | 0.79 | 0.79 | 64 | 1022.2 |
| 20260502070543 | 51 | 109 | 0.0 | 0.0 | 0.00 | 0.79 | 0.79 | 64 | 1022.2 |
| 20260502070042 | 51 | 109 | 0.0 | 0.0 | 0.00 | 0.79 | 0.79 | 64 | 1022.1 |
| 20260502065046 | 52 | 109 | 0.0 | 0.0 | 0.00 | 0.79 | 0.79 | 63 | 1022.2 |
| 20260502064546 | 52 | 109 | 0.0 | 0.0 | 0.00 | 0.79 | 0.79 | 63 | 1022.2 |
| 20260502064044 | 52 | 109 | 0.0 | 0.0 | 0.00 | 0.79 | 0.79 | 62 | 1022.1 |
| 20260502063544 | 52 | 109 | 0.0 | 0.0 | 0.00 | 0.79 | 0.79 | 62 | 1022.1 |
| 20260502063043 | 52 | 109 | 0.0 | 0.0 | 0.00 | 0.79 | 0.79 | 61 | 1022.1 |
| 20260502062543 | 52 | 109 | 0.0 | 0.0 | 0.00 | 0.79 | 0.79 | 61 | 1022.1 |
| 20260502062043 | 52 | 109 | 0.0 | 0.9 | 0.00 | 0.79 | 0.79 | 61 | 1022.1 |
| 20260502061542 | 53 | 109 | 0.0 | 1.7 | 0.00 | 0.79 | 0.79 | 60 | 1022.1 |
| 20260502061041 | 53 | 109 | 0.0 | 1.7 | 0.00 | 0.79 | 0.79 | 60 | 1022.0 |
| 20260502060540 | 53 | 109 | 0.9 | 1.7 | 0.00 | 0.79 | 0.79 | 60 | 1021.9 |
| 20260502060040 | 53 | 109 | 0.0 | 1.7 | 0.00 | 0.79 | 0.79 | 60 | 1022.0 |
| 20260502055036 | 54 | 109 | 0.0 | 1.7 | 0.00 | 0.79 | 0.79 | 59 | 1022.1 |
| 20260502054535 | 54 | 109 | 0.0 | 1.7 | 0.00 | 0.79 | 0.79 | 59 | 1022.1 |
| 20260502054034 | 54 | 109 | 0.0 | 1.7 | 0.00 | 0.79 | 0.79 | 58 | 1021.9 |
| 20260502053535 | 54 | 109 | 0.0 | 0.9 | 0.00 | 0.79 | 0.79 | 58 | 1022.0 |
| 20260502053037 | 54 | 109 | 0.0 | 1.7 | 0.00 | 0.79 | 0.79 | 57 | 1022.0 |
| 20260502052532 | 54 | 109 | 0.0 | 1.7 | 0.00 | 0.79 | 0.79 | 56 | 1021.9 |
| 20260502052036 | 54 | 109 | 0.0 | 1.7 | 0.00 | 0.79 | 0.79 | 56 | 1021.9 |
| 20260502051535 | 55 | 108 | 0.0 | 1.7 | 0.00 | 0.79 | 0.79 | 55 | 1021.9 |
| 20260502051031 | 55 | 108 | 0.9 | 3.5 | 0.00 | 0.79 | 0.79 | 55 | 1022.0 |
| 20260502050530 | 55 | 108 | 1.7 | 3.5 | 0.00 | 0.79 | 0.79 | 55 | 1021.8 |
| 20260502050030 | 55 | 80 | 0.9 | 3.5 | 0.00 | 0.79 | 0.79 | 55 | 1021.8 |
| 20260502045034 | 55 | 112 | 0.0 | 1.7 | 0.00 | 0.79 | 0.79 | 57 | 1021.8 |
| 20260502044534 | 55 | 112 | 0.0 | 1.7 | 0.00 | 0.79 | 0.79 | 57 | 1021.8 |
| 20260502044034 | 55 | 112 | 0.0 | 1.7 | 0.00 | 0.79 | 0.79 | 56 | 1021.7 |
| 20260502043532 | 55 | 112 | 0.0 | 2.6 | 0.00 | 0.79 | 0.79 | 56 | 1021.6 |
| 20260502043032 | 56 | 112 | 0.0 | 5.2 | 0.00 | 0.79 | 0.79 | 56 | 1021.4 |
| 20260502042531 | 56 | 122 | 1.7 | 5.2 | 0.00 | 0.79 | 0.79 | 56 | 1021.4 |
| 20260502042031 | 56 | 59 | 0.9 | 4.3 | 0.00 | 0.79 | 0.79 | 56 | 1021.3 |
| 20260502041535 | 56 | 117 | 1.7 | 5.2 | 0.00 | 0.79 | 0.79 | 56 | 1021.3 |
| 20260502041030 | 56 | 112 | 1.7 | 5.2 | 0.00 | 0.79 | 0.79 | 56 | 1021.2 |
| 20260502040530 | 56 | 95 | 1.7 | 4.3 | 0.00 | 0.79 | 0.79 | 57 | 1021.1 |
| 20260502040029 | 57 | 122 | 1.7 | 4.3 | 0.00 | 0.79 | 0.79 | 56 | 1021.0 |
| 20260502035022 | 57 | 106 | 0.9 | 3.5 | 0.00 | 0.79 | 0.79 | 55 | 1021.0 |
| 20260502034527 | 57 | 108 | 0.0 | 3.5 | 0.00 | 0.79 | 0.79 | 55 | 1020.9 |
| 20260502034023 | 57 | 58 | 0.9 | 2.6 | 0.00 | 0.79 | 0.79 | 54 | 1020.8 |
| 20260502033520 | 57 | 57 | 0.0 | 3.5 | 0.00 | 0.79 | 0.79 | 54 | 1020.8 |
| 20260502033121 | 57 | 56 | 1.7 | 4.3 | 0.00 | 0.79 | 0.79 | 53 | 1020.8 |
| 20260502032523 | 57 | 109 | 1.7 | 4.3 | 0.00 | 0.79 | 0.79 | 53 | 1020.8 |
| 20260502032018 | 57 | 55 | 1.7 | 8.7 | 0.00 | 0.79 | 0.79 | 53 | 1020.7 |
| 20260502031518 | 57 | 62 | 5.2 | 8.7 | 0.00 | 0.79 | 0.79 | 53 | 1020.6 |
| 20260502031018 | 58 | 62 | 3.5 | 9.6 | 0.00 | 0.79 | 0.79 | 53 | 1020.6 |
| 20260502030519 | 58 | 71 | 4.3 | 9.6 | 0.00 | 0.79 | 0.79 | 53 | 1020.5 |
| 20260502030017 | 58 | 109 | 2.6 | 6.1 | 0.00 | 0.79 | 0.79 | 54 | 1020.4 |
| 20260502025013 | 58 | 62 | 1.7 | 7.0 | 0.00 | 0.79 | 0.79 | 55 | 1020.2 |
| 20260502024514 | 58 | 61 | 2.6 | 7.0 | 0.00 | 0.79 | 0.79 | 55 | 1020.1 |
| 20260502024015 | 58 | 56 | 2.6 | 8.7 | 0.00 | 0.79 | 0.79 | 55 | 1020.1 |
| 20260502023513 | 58 | 52 | 4.3 | 8.7 | 0.00 | 0.79 | 0.79 | 55 | 1020.0 |
| 20260502023012 | 58 | 58 | 3.5 | 7.0 | 0.00 | 0.79 | 0.79 | 56 | 1020.0 |
| 20260502022513 | 57 | 48 | 3.5 | 7.0 | 0.00 | 0.79 | 0.79 | 56 | 1019.7 |
| 20260502022014 | 57 | 65 | 1.7 | 3.5 | 0.00 | 0.79 | 0.79 | 57 | 1019.6 |
| 20260502021508 | 57 | 94 | 0.9 | 2.6 | 0.00 | 0.79 | 0.79 | 57 | 1019.6 |
| 20260502021008 | 57 | 107 | 0.0 | 6.1 | 0.00 | 0.79 | 0.79 | 57 | 1019.4 |
| 20260502020507 | 57 | 131 | 2.6 | 7.0 | 0.00 | 0.79 | 0.79 | 56 | 1019.2 |
| 20260502020014 | 57 | 56 | 2.6 | 7.0 | 0.00 | 0.79 | 0.79 | 56 | 1019.2 |
| 20260502015011 | 57 | 63 | 3.5 | 7.8 | 0.00 | 0.79 | 0.79 | 56 | 1019.1 |
| 20260502014507 | 57 | 48 | 3.5 | 9.6 | 0.00 | 0.79 | 0.79 | 56 | 1018.9 |
| 20260502014007 | 57 | 54 | 5.2 | 9.6 | 0.00 | 0.79 | 0.79 | 56 | 1018.9 |
| 20260502013508 | 57 | 52 | 3.5 | 9.6 | 0.00 | 0.79 | 0.79 | 57 | 1018.9 |
| 20260502013106 | 57 | 69 | 4.3 | 12.2 | 0.00 | 0.79 | 0.79 | 57 | 1018.8 |
| 20260502012506 | 57 | 70 | 7.0 | 12.2 | 0.00 | 0.79 | 0.79 | 57 | 1018.7 |
| 20260502012010 | 57 | 46 | 7.8 | 12.2 | 0.00 | 0.79 | 0.79 | 57 | 1018.7 |
| 20260502011514 | 58 | 110 | 5.2 | 9.6 | 0.00 | 0.79 | 0.79 | 57 | 1018.6 |
| 20260502011004 | 58 | 81 | 5.2 | 9.6 | 0.00 | 0.79 | 0.79 | 57 | 1018.3 |
| 20260502010501 | 58 | 100 | 4.3 | 8.7 | 0.00 | 0.79 | 0.79 | 57 | 1018.2 |
| 20260502010001 | 58 | 46 | 4.3 | 9.6 | 0.00 | 0.79 | 0.79 | 57 | 1017.9 |
| 20260502005100 | 58 | 50 | 6.1 | 9.6 | 0.00 | 0.79 | 0.79 | 57 | 1017.7 |
| 20260502004603 | 58 | 66 | 5.2 | 12.2 | 0.00 | 0.79 | 0.79 | 57 | 1017.6 |
| 20260502004053 | 58 | 43 | 5.2 | 13.0 | 0.00 | 0.79 | 0.79 | 56 | 1017.3 |
| 20260502003552 | 59 | 68 | 7.0 | 14.8 | 0.00 | 0.79 | 0.79 | 57 | 1017.2 |
| 20260502003052 | 59 | 48 | 5.2 | 11.3 | 0.00 | 0.79 | 0.79 | 56 | 1017.2 |
| 20260502002551 | 59 | 36 | 4.3 | 13.0 | 0.00 | 0.79 | 0.79 | 56 | 1017.0 |
| 20260502002051 | 59 | 31 | 7.0 | 14.8 | 0.00 | 0.79 | 0.79 | 56 | 1016.8 |
| 20260502001549 | 59 | 73 | 7.8 | 14.8 | 0.00 | 0.79 | 0.79 | 55 | 1016.7 |
| 20260502001049 | 59 | 69 | 9.6 | 14.8 | 0.00 | 0.79 | 0.79 | 55 | 1016.5 |
| 20260502000551 | 59 | 55 | 7.8 | 11.3 | 0.00 | 0.79 | 0.79 | 56 | 1016.4 |
| 20260502000148 | 60 | 66 | 4.3 | 8.7 | 0.00 | 0.79 | 0.79 | 55 | 1016.3 |
| 20260501235056 | 60 | 99 | 3.5 | 8.7 | 0.00 | 0.79 | 0.79 | 55 | 1016.2 |
| 20260501234557 | 60 | 88 | 4.3 | 11.3 | 0.00 | 0.79 | 0.79 | 54 | 1016.1 |
| 20260501234100 | 60 | 54 | 7.0 | 13.0 | 0.00 | 0.79 | 0.79 | 54 | 1016.0 |
| 20260501233556 | 60 | 74 | 9.6 | 13.0 | 0.00 | 0.79 | 0.79 | 53 | 1016.0 |
| 20260501233056 | 60 | 67 | 6.1 | 12.2 | 0.00 | 0.79 | 0.79 | 54 | 1015.7 |
| 20260501232556 | 60 | 71 | 7.8 | 12.2 | 0.00 | 0.79 | 0.79 | 54 | 1015.8 |
| 20260501232059 | 61 | 60 | 6.1 | 11.3 | 0.00 | 0.79 | 0.79 | 53 | 1015.9 |
| 20260501231602 | 61 | 62 | 7.8 | 11.3 | 0.00 | 0.79 | 0.79 | 53 | 1015.7 |
| 20260501231054 | 61 | 68 | 4.3 | 11.3 | 0.00 | 0.79 | 0.79 | 53 | 1015.6 |
| 20260501230555 | 61 | 89 | 7.8 | 12.2 | 0.00 | 0.79 | 0.79 | 53 | 1015.4 |
| 20260501230055 | 61 | 52 | 7.8 | 12.2 | 0.00 | 0.79 | 0.79 | 53 | 1015.4 |
| 20260501225052 | 61 | 137 | 5.2 | 12.2 | 0.00 | 0.79 | 0.79 | 54 | 1015.2 |
| 20260501224600 | 61 | 58 | 2.6 | 12.2 | 0.00 | 0.79 | 0.79 | 54 | 1015.0 |
| 20260501224052 | 61 | 86 | 6.1 | 9.6 | 0.00 | 0.79 | 0.79 | 55 | 1015.0 |
| 20260501223553 | 61 | 106 | 4.3 | 11.3 | 0.00 | 0.79 | 0.79 | 55 | 1014.9 |
| 20260501223107 | 61 | 66 | 5.2 | 11.3 | 0.00 | 0.79 | 0.79 | 55 | 1014.9 |
| 20260501222551 | 61 | 77 | 6.1 | 11.3 | 0.00 | 0.79 | 0.79 | 54 | 1015.0 |
| 20260501222054 | 61 | 43 | 2.6 | 13.9 | 0.00 | 0.79 | 0.79 | 54 | 1014.9 |
| 20260501221610 | 61 | 97 | 8.7 | 13.9 | 0.00 | 0.79 | 0.79 | 53 | 1014.8 |
| 20260501221052 | 62 | 122 | 4.3 | 9.6 | 0.00 | 0.79 | 0.79 | 54 | 1014.8 |
| 20260501220550 | 61 | 71 | 6.1 | 13.9 | 0.00 | 0.79 | 0.79 | 54 | 1014.8 |
| 20260501220150 | 61 | 87 | 7.0 | 13.9 | 0.00 | 0.79 | 0.79 | 54 | 1014.8 |
| 20260501215650 | 62 | 66 | 7.8 | 13.0 | 0.00 | 0.79 | 0.79 | 53 | 1014.9 |
| 20260501215048 | 62 | 58 | 7.8 | 11.3 | 0.00 | 0.79 | 0.79 | 54 | 1014.8 |
| 20260501214548 | 62 | 73 | 7.0 | 10.4 | 0.00 | 0.79 | 0.79 | 53 | 1014.9 |
| 20260501214147 | 62 | 156 | 5.2 | 13.0 | 0.00 | 0.79 | 0.79 | 54 | 1014.9 |
| 20260501213547 | 62 | 56 | 7.0 | 13.0 | 0.00 | 0.79 | 0.79 | 53 | 1014.8 |
| 20260501213048 | 62 | 43 | 7.8 | 11.3 | 0.00 | 0.79 | 0.79 | 53 | 1014.8 |
| 20260501212548 | 62 | 58 | 5.2 | 12.2 | 0.00 | 0.79 | 0.79 | 54 | 1014.9 |
| 20260501212047 | 62 | 75 | 6.1 | 12.2 | 0.00 | 0.79 | 0.79 | 54 | 1015.0 |
| 20260501211547 | 62 | 72 | 7.0 | 11.3 | 0.00 | 0.79 | 0.79 | 55 | 1014.9 |
| 20260501211046 | 61 | 79 | 7.0 | 17.4 | 0.00 | 0.79 | 0.79 | 56 | 1014.9 |
| 20260501210546 | 61 | 52 | 10.4 | 17.4 | 0.00 | 0.79 | 0.79 | 56 | 1015.0 |
| 20260501210047 | 61 | 54 | 11.3 | 14.8 | 0.00 | 0.79 | 0.79 | 56 | 1015.0 |
| 20260501205042 | 61 | 64 | 7.0 | 11.3 | 0.00 | 0.79 | 0.79 | 57 | 1015.1 |
| 20260501204542 | 61 | 52 | 6.1 | 14.8 | 0.00 | 0.79 | 0.79 | 57 | 1015.1 |
| 20260501204043 | 61 | 69 | 7.8 | 14.8 | 0.00 | 0.79 | 0.79 | 56 | 1015.2 |
| 20260501203544 | 61 | 117 | 6.1 | 14.8 | 0.00 | 0.79 | 0.79 | 56 | 1015.2 |
| 20260501203041 | 62 | 96 | 7.0 | 15.6 | 0.00 | 0.79 | 0.79 | 55 | 1015.1 |